Wind_Speed
35 35 35 36 38 37 38 41 41 44 46 47 48 43 37 37 40 44 47 44 40 40 39 40 39 38 37 37 37 37 35 33 33 33 33 32 32 31 31 31 29 28
34 35 36 36 36 37 40 41 40 43 47 48 49 46 40 39 42 46 49 46 42 39 38 39 40 39 37 36 37 38 37 34 33 34 34 33 33 32 32 32 31 29
34 35 36 35 35 38 41 42 40 40 42 45 48 47 44 44 46 49 51 49 45 41 38 37 39 40 38 37 38 39 38 35 33 34 35 34 33 32 32 32 32 30
34 35 36 35 34 37 39 41 42 40 38 41 45 47 48 48 50 52 53 50 46 42 38 36 37 40 40 39 39 39 38 36 34 34 35 35 34 33 33 33 33 32
33 34 35 35 35 37 38 40 43 41 38 40 44 48 52 53 50 52 54 51 46 41 38 36 36 39 41 41 40 40 40 38 36 35 36 35 34 34 33 33 34 33
31 33 33 35 37 37 39 41 43 44 42 41 44 49 54 54 51 50 51 50 47 42 39 38 38 39 41 41 41 41 41 40 38 37 36 35 35 35 35 35 35 35
31 31 32 35 37 37 39 41 43 46 45 42 44 49 53 53 50 48 44 42 42 42 41 40 41 41 41 41 42 42 43 42 39 38 36 35 36 36 36 36 37 36
31 32 32 34 36 37 38 38 40 44 45 45 44 45 50 51 48 45 42 39 39 39 41 42 41 42 42 43 44 44 43 42 40 38 38 38 38 38 37 37 38 38
30 31 33 35 36 37 38 38 39 42 44 47 46 44 47 48 46 45 44 42 40 39 40 41 40 40 42 41 41 42 42 41 39 39 39 39 39 39 39 39 39 39
29 30 32 35 36 37 39 39 40 42 43 46 48 46 46 45 44 45 45 43 43 41 41 40 37 36 38 39 37 38 40 40 38 38 39 39 40 40 40 40 40 40
28 29 30 33 35 38 40 40 40 43 44 46 47 47 46 43 40 43 45 45 43 41 42 43 40 37 37 37 36 35 36 37 37 37 38 38 38 39 41 42 42 41
27 28 29 31 34 38 41 41 40 42 44 44 42 42 44 41 40 42 44 44 43 43 44 44 45 44 40 34 34 35 36 36 36 37 38 37 37 37 38 40 42 42
27 27 28 30 33 37 41 43 42 41 42 41 40 41 42 40 40 43 43 43 44 44 46 46 47 50 45 36 32 33 34 35 35 35 37 37 37 37 38 41 43 43
27 27 28 29 32 36 40 42 42 40 38 38 39 42 43 41 40 42 42 43 43 43 46 48 48 50 50 43 36 34 34 34 34 34 36 36 37 37 38 41 43 44
28 28 29 29 30 35 39 40 41 39 36 36 35 36 40 41 42 42 41 41 41 41 44 48 49 51 53 51 45 40 38 38 36 35 36 37 38 39 39 40 42 44
30 30 29 28 29 33 38 39 39 37 34 34 35 36 38 38 40 42 43 43 43 42 44 47 49 52 54 54 51 44 40 41 40 38 37 37 38 38 39 40 41 43
32 31 29 28 28 31 35 39 39 36 34 34 35 36 35 35 38 41 44 46 47 47 46 46 48 50 51 53 55 49 41 41 44 41 36 35 36 36 36 36 37 40
33 32 30 29 28 29 33 37 36 33 34 34 33 33 32 34 36 40 43 47 49 50 49 47 48 49 47 48 53 52 44 42 45 45 39 36 35 36 35 34 34 37
34 34 32 29 27 27 30 32 31 30 34 34 29 28 31 34 37 38 39 42 47 51 51 49 49 49 45 42 45 49 48 47 48 49 46 43 41 39 38 37 35 36
35 34 33 29 26 25 27 29 28 28 31 33 30 27 28 32 36 37 36 36 40 44 46 47 47 46 44 43 44 47 51 54 55 54 53 52 51 49 46 44 42 39
34 33 33 30 25 23 23 26 26 25 25 28 30 29 27 27 30 33 34 34 35 37 39 40 41 41 41 43 45 48 52 57 58 58 58 57 57 57 55 53 51 48
32 32 32 30 26 23 22 23 24 24 23 23 25 27 26 26 28 30 32 33 33 33 35 36 37 39 41 43 45 47 50 53 55 57 59 60 59 58 57 58 59 58
31 32 32 30 27 25 23 22 22 21 21 20 20 24 25 27 29 30 30 32 32 33 35 37 38 39 40 44 47 48 48 46 46 52 58 60 59 54 50 50 53 56
29 31 32 30 28 25 23 23 22 21 20 18 17 21 25 28 30 30 30 31 32 34 36 37 38 38 38 41 45 48 47 44 43 47 52 55 55 53 48 45 46 48
25 28 29 29 28 26 24 23 22 22 22 19 17 17 21 26 29 29 28 31 32 33 34 33 32 33 34 37 40 41 41 41 42 46 50 51 51 52 51 49 48 47
21 24 26 28 28 28 26 25 24 23 22 21 19 18 17 20 25 26 25 27 29 30 30 28 25 25 26 27 31 35 36 36 38 43 47 48 49 50 50 49 50 49
Wind_Direction
251 250 248 249 247 245 245 243 238 235 237 242 244 238 230 232 236 234 233 236 237 236 237 238 238 240 240 240 243 245 245 242 238 236 236 233 233 235 237 240 240 240
249 250 249 249 248 243 242 243 241 238 238 241 243 242 234 230 234 235 233 235 236 234 235 237 238 240 242 241 243 245 244 241 236 233 234 233 232 234 236 239 240 240
248 248 250 251 248 245 244 244 244 241 242 242 241 242 238 231 232 234 234 234 235 234 235 238 240 242 243 242 243 245 244 241 235 232 232 232 231 232 235 238 239 239
251 247 248 251 249 246 245 244 243 241 242 244 241 241 239 233 231 233 233 234 234 233 235 239 243 244 244 242 242 244 244 240 235 231 231 231 231 232 234 237 239 238
253 250 247 248 250 249 244 241 243 241 239 243 244 243 242 239 235 233 232 234 235 235 236 239 243 245 243 240 240 243 242 240 235 231 230 230 231 232 234 236 238 237
251 250 249 246 248 251 245 238 240 241 238 239 242 245 245 243 240 236 234 233 235 235 237 240 243 246 244 240 239 241 241 239 236 232 231 230 231 232 233 235 237 237
252 248 247 247 249 252 248 238 235 239 240 238 239 243 246 243 240 239 238 236 235 233 233 236 240 245 247 242 239 238 239 238 235 233 232 231 231 232 233 235 237 237
255 248 244 244 247 251 253 246 238 237 240 241 239 240 245 244 240 238 238 239 242 240 234 232 235 241 245 243 240 239 239 239 236 234 234 233 232 232 233 234 237 238
256 250 243 241 242 246 252 253 245 239 239 243 244 242 242 244 243 240 237 238 243 245 241 234 230 235 243 244 241 240 240 239 237 236 236 235 233 232 233 233 235 237
255 252 246 242 241 242 246 249 249 245 241 242 247 247 242 240 242 243 241 237 237 241 245 244 235 232 240 244 240 238 238 237 236 237 237 237 236 234 234 234 235 236
254 254 251 245 242 242 244 246 248 249 246 242 244 249 247 240 238 241 242 239 238 239 243 248 246 237 234 239 239 236 235 235 237 239 239 238 238 237 236 235 235 236
255 255 255 251 245 243 244 245 245 248 251 247 244 250 253 248 240 239 241 241 241 242 242 244 247 242 231 229 235 235 231 231 235 237 236 235 237 239 240 240 239 237
257 259 259 255 249 245 244 245 245 246 252 253 248 247 252 253 247 241 240 241 241 244 243 241 243 243 235 225 226 230 229 228 231 233 230 229 232 236 240 243 243 241
257 262 263 259 253 247 245 248 248 245 249 253 251 246 246 249 251 245 240 240 241 243 244 240 239 240 237 231 227 229 232 232 230 229 227 225 227 230 234 239 243 243
257 262 266 266 261 252 247 250 250 246 247 251 251 248 245 244 246 244 238 236 238 241 242 239 237 234 234 234 231 230 236 240 234 228 226 224 225 227 229 234 238 241
256 262 266 270 269 259 251 251 252 249 249 252 251 250 248 246 244 241 236 234 236 239 240 239 236 233 232 233 232 231 236 242 237 228 223 223 224 226 228 232 236 239
254 258 263 268 272 266 256 254 253 249 247 251 254 252 247 243 241 237 233 233 234 236 238 240 239 237 235 233 233 233 235 237 235 229 224 224 224 224 227 231 234 237
251 255 259 265 271 273 266 261 257 252 249 250 253 251 243 237 235 234 234 236 236 236 238 240 242 244 245 239 235 235 234 233 233 232 231 231 230 227 227 228 230 233
248 252 257 263 271 276 275 271 264 257 254 253 251 248 241 234 231 233 238 242 242 241 240 241 242 248 253 248 238 234 233 233 235 236 238 240 240 237 233 231 232 233
245 250 254 261 270 274 277 276 271 263 257 254 252 249 243 237 233 235 240 245 247 245 244 243 243 248 255 254 247 239 233 232 234 237 241 245 246 245 243 240 240 239
245 248 252 259 267 270 274 277 275 273 266 254 246 245 246 242 237 238 241 244 246 247 246 245 246 250 253 254 254 249 239 233 233 236 240 244 246 248 249 248 248 248
245 246 250 256 263 266 269 273 276 279 277 263 246 241 244 242 238 239 242 243 243 245 248 250 251 253 254 255 258 258 248 236 232 233 236 239 240 241 244 248 251 252
243 244 248 254 261 264 263 265 271 278 283 277 254 242 243 242 237 235 236 238 239 240 244 249 251 254 256 255 257 259 255 246 237 233 234 236 237 236 236 239 244 248
245 244 247 251 258 264 264 262 264 271 280 284 266 248 247 248 244 239 233 232 235 237 239 244 249 256 261 260 259 258 254 253 253 246 242 243 244 244 242 241 240 241
252 248 249 251 256 261 265 263 263 265 272 279 277 264 256 252 251 249 239 230 230 235 239 243 248 255 259 262 265 259 248 248 255 253 250 251 251 250 250 249 248 248
260 255 253 253 255 259 262 263 262 261 263 268 271 271 266 256 254 255 248 235 228 229 235 239 242 246 249 254 261 259 250 249 253 252 252 253 252 251 252 251 252 255
Height
3071 3073 3074 3074 3076 3078 3080 3080 3080 3082 3084 3087 3089 3089 3089 3092 3096 3096 3096 3096 3097 3097 3098 3100 3101 3103 3104 3106 3108 3109 3112 3114 3117 3119 3121 3124 3126 3128 3130 3132 3134 3135
3067 3068 3068 3069 3070 3072 3074 3075 3076 3078 3080 3083 3085 3086 3085 3086 3089 3092 3092 3092 3092 3093 3094 3095 3097 3099 3100 3102 3104 3106 3108 3110 3113 3115 3117 3120 3122 3124 3127 3129 3131 3132
3061 3063 3063 3063 3064 3067 3068 3070 3072 3073 3075 3078 3081 3082 3081 3079 3081 3085 3087 3088 3088 3089 3090 3091 3093 3095 3097 3098 3100 3101 3104 3106 3109 3111 3113 3116 3118 3121 3123 3126 3128 3129
3054 3056 3057 3057 3059 3061 3063 3064 3066 3068 3070 3073 3074 3076 3076 3074 3073 3077 3082 3083 3084 3085 3086 3087 3089 3091 3093 3094 3095 3097 3100 3102 3104 3107 3109 3111 3114 3117 3120 3122 3124 3126
3048 3050 3051 3052 3053 3055 3057 3058 3060 3063 3065 3066 3069 3070 3070 3070 3069 3070 3075 3079 3079 3080 3081 3083 3085 3087 3089 3090 3091 3094 3096 3098 3100 3102 3104 3107 3110 3113 3116 3119 3121 3123
3043 3044 3046 3047 3047 3049 3051 3053 3056 3058 3059 3061 3064 3065 3066 3067 3067 3067 3069 3072 3074 3075 3077 3079 3081 3083 3085 3087 3088 3090 3091 3093 3095 3097 3099 3103 3106 3109 3112 3114 3117 3119
3038 3039 3041 3042 3043 3044 3045 3048 3051 3052 3053 3055 3058 3060 3061 3063 3065 3065 3067 3069 3070 3070 3072 3074 3077 3079 3081 3083 3084 3085 3087 3089 3091 3093 3096 3099 3102 3105 3108 3110 3113 3115
3033 3034 3036 3038 3039 3040 3040 3042 3045 3046 3047 3048 3049 3053 3056 3058 3061 3063 3064 3066 3067 3068 3069 3070 3071 3074 3077 3078 3079 3081 3084 3087 3089 3090 3092 3095 3097 3100 3103 3105 3108 3110
3027 3029 3031 3033 3035 3036 3036 3037 3037 3039 3043 3042 3041 3045 3051 3054 3057 3058 3058 3060 3063 3064 3066 3066 3066 3069 3072 3074 3076 3079 3081 3084 3086 3087 3089 3091 3093 3096 3098 3100 3103 3105
3022 3024 3025 3027 3030 3031 3031 3032 3031 3032 3037 3039 3036 3039 3046 3049 3051 3052 3052 3052 3056 3059 3061 3063 3063 3065 3068 3070 3072 3074 3077 3079 3081 3083 3085 3087 3090 3092 3094 3096 3098 3101
3017 3019 3020 3022 3024 3025 3025 3027 3027 3027 3031 3035 3035 3035 3039 3043 3045 3047 3048 3047 3050 3055 3058 3060 3062 3063 3064 3066 3068 3071 3073 3075 3077 3079 3081 3084 3087 3089 3091 3092 3094 3097
3013 3014 3015 3017 3018 3019 3019 3021 3023 3023 3025 3029 3033 3033 3034 3038 3041 3043 3045 3046 3048 3052 3054 3056 3059 3059 3059 3061 3064 3067 3070 3072 3073 3075 3077 3080 3083 3085 3088 3089 3091 3093
3009 3010 3010 3011 3012 3013 3013 3015 3017 3020 3021 3023 3028 3030 3030 3034 3036 3037 3039 3042 3045 3047 3048 3049 3052 3054 3056 3057 3059 3062 3066 3068 3070 3072 3074 3077 3079 3082 3084 3086 3089 3091
3005 3005 3006 3007 3008 3008 3009 3010 3012 3016 3019 3019 3022 3026 3026 3028 3031 3032 3033 3036 3039 3041 3041 3041 3043 3046 3050 3053 3054 3058 3062 3064 3067 3069 3071 3073 3076 3078 3081 3084 3087 3089
3001 3001 3002 3004 3004 3003 3004 3005 3006 3011 3015 3016 3017 3020 3022 3023 3026 3028 3029 3030 3033 3035 3034 3034 3036 3038 3043 3047 3050 3054 3057 3061 3064 3066 3067 3069 3072 3075 3077 3080 3083 3085
2997 2998 2999 3000 3000 2999 2999 3000 3001 3005 3009 3011 3012 3014 3016 3019 3021 3024 3026 3026 3027 3028 3028 3027 3029 3032 3036 3041 3046 3049 3054 3058 3061 3063 3064 3065 3068 3070 3073 3075 3078 3080
2993 2994 2996 2996 2996 2995 2995 2994 2997 3000 3003 3006 3007 3008 3010 3014 3016 3018 3020 3020 3020 3021 3022 3024 3026 3028 3032 3036 3040 3045 3050 3054 3057 3060 3061 3062 3064 3066 3068 3071 3074 3076
2989 2990 2992 2992 2993 2993 2991 2990 2992 2995 2997 2999 3002 3004 3006 3008 3010 3012 3014 3015 3016 3017 3018 3021 3024 3026 3029 3032 3034 3040 3047 3050 3053 3056 3057 3059 3061 3062 3064 3067 3069 3071
2985 2986 2988 2989 2990 2990 2988 2987 2988 2990 2991 2994 2997 3000 3001 3003 3005 3006 3009 3011 3012 3014 3016 3020 3022 3023 3027 3030 3032 3036 3042 3046 3048 3051 3052 3054 3057 3059 3060 3063 3065 3067
2981 2982 2984 2986 2987 2987 2986 2985 2985 2986 2987 2989 2993 2995 2997 2999 3000 3002 3004 3006 3008 3011 3014 3017 3019 3020 3023 3027 3029 3032 3036 3039 3043 3045 3047 3048 3051 3053 3055 3058 3060 3063
2977 2979 2981 2982 2983 2984 2984 2983 2983 2984 2984 2985 2987 2989 2992 2995 2996 2997 2999 3002 3005 3008 3011 3014 3016 3017 3020 3023 3026 3028 3030 3032 3035 3039 3041 3043 3045 3047 3049 3051 3054 3058
2974 2975 2976 2978 2979 2981 2981 2982 2982 2982 2983 2982 2982 2984 2988 2990 2992 2994 2996 2998 3001 3005 3007 3010 3013 3015 3017 3019 3021 3023 3024 3026 3029 3032 3033 3033 3035 3039 3042 3045 3048 3051
2970 2971 2972 2974 2976 2977 2979 2980 2980 2980 2981 2981 2980 2982 2985 2986 2987 2989 2992 2995 2997 2999 3002 3006 3009 3012 3014 3016 3018 3019 3020 3023 3026 3027 3025 3025 3027 3032 3036 3038 3041 3044
2966 2967 2969 2971 2972 2974 2975 2977 2977 2978 2978 2979 2979 2980 2982 2984 2984 2986 2988 2990 2993 2994 2997 3000 3004 3007 3009 3011 3013 3015 3017 3020 3023 3024 3024 3024 3027 3030 3033 3035 3034 3035
2963 2964 2965 2967 2969 2971 2972 2973 2974 2975 2976 2977 2977 2978 2979 2981 2983 2984 2985 2986 2988 2990 2992 2995 2998 3001 3004 3005 3007 3010 3013 3016 3018 3019 3020 3022 3024 3027 3030 3032 3032 3032
2960 2960 2961 2963 2965 2967 2968 2970 2971 2973 2974 2975 2976 2976 2977 2979 2981 2983 2984 2984 2984 2985 2988 2990 2993 2996 2999 3000 3001 3005 3009 3012 3013 3014 3015 3017 3020 3022 3024 3026 3028 3029